Location: Fort Worth, Tx
(32.7431°N, 97.3695°W)
Time: 12:46:58
(UTC-05:00)

SR - All Passes

Search period start: 07 February 2023 00:00
Search period end: 17 February 2023 00:00
Orbit: 581 x 869 km, 66.7° (Epoch: 06 February)

Date Brightness Start Highest point End Pass type
(mag) Time Alt. Az. Time Alt. Az. Time Alt. Az.
07 Feb - 00:06:19 10° NNW 00:10:27 50° ENE 00:14:37 10° SE night (unlit)
07 Feb - 14:30:35 10° SSW 14:35:56 81° WNW 14:40:51 10° NNE daylight
07 Feb - 23:16:37 10° N 23:19:52 21° ENE 23:23:05 10° ESE night (unlit)
08 Feb - 00:58:11 10° NW 01:01:43 26° WSW 01:05:19 10° SSW night (unlit)
08 Feb - 13:40:29 10° S 13:45:32 44° ESE 13:50:14 10° NE daylight
08 Feb - 15:23:55 10° WSW 15:27:37 19° NW 15:31:08 10° N daylight
09 Feb - 00:07:13 10° NNW 00:11:26 71° WSW 00:15:42 10° SSE night (unlit)
09 Feb - 12:51:30 10° SSE 12:55:15 20° ESE 12:58:48 10° ENE daylight
09 Feb - 14:32:01 10° SW 14:36:59 41° WNW 14:41:35 10° N daylight
09 Feb - 23:16:56 10° NNW 23:20:59 43° ENE 23:25:04 10° SE night (unlit)
10 Feb - 01:00:54 10° W 01:02:29 12° WSW 01:04:05 10° SW night (unlit)
10 Feb - 13:41:10 10° SSW 13:46:29 88° ESE 13:51:24 10° NNE daylight
10 Feb - 15:28:35 10° NW 15:28:57 10° NW 15:29:18 10° NW daylight
10 Feb - 22:27:22 10° N 22:30:21 18° NE 22:33:20 10° E night (unlit)
11 Feb - 00:08:34 10° NW 00:12:17 30° WSW 00:16:05 10° S night (unlit)
11 Feb - 12:51:12 10° S 12:56:07 38° ESE 13:00:40 10° NE daylight
11 Feb - 14:34:11 10° WSW 14:38:07 22° WNW 14:41:51 10° N daylight
11 Feb - 23:17:43 10° NNW 23:21:58 83° WSW 23:26:17 10° SSE night (unlit)
12 Feb - 12:02:30 10° SSE 12:05:50 17° ESE 12:09:01 10° ENE daylight
12 Feb - 13:42:29 10° SW 13:47:30 46° WNW 13:52:10 10° NNE daylight
12 Feb - 22:27:32 10° N 22:31:28 37° ENE 22:35:28 10° SE night (unlit)
13 Feb - 00:10:50 10° WNW 00:13:03 14° WSW 00:15:18 10° SW night (unlit)
13 Feb - 12:51:45 10° SSW 12:57:02 78° ESE 13:01:54 10° NNE daylight
13 Feb - 14:37:48 10° WNW 14:39:25 11° NW 14:40:59 10° NNW daylight
13 Feb - 21:38:07 10° NNE 21:40:49 16° NE 21:43:30 10° E visible
13 Feb - 23:18:57 10° NW 23:22:50 35° WSW 23:26:48 10° S night (unlit)
14 Feb - 12:01:56 10° S 12:06:40 34° ESE 12:11:04 10° NE daylight
14 Feb - 13:44:28 10° WSW 13:48:37 24° WNW 13:52:31 10° N daylight
14 Feb - 22:28:14 10° NNW 22:32:29 85° ENE 22:36:48 10° SSE night (unlit)
15 Feb - 11:13:34 10° SE 11:16:24 15° ESE 11:19:08 10° ENE daylight
15 Feb - 12:52:55 10° SW 12:58:01 52° WNW 13:02:44 10° NNE daylight
15 Feb - 21:38:08 10° N 21:41:58 32° ENE 21:45:51 10° SE visible
15 Feb - 23:20:57 10° WNW 23:23:36 16° WSW 23:26:19 10° SSW night (unlit)
16 Feb - 12:02:20 10° SSW 12:07:34 69° ESE 12:12:22 10° NNE daylight
16 Feb - 13:47:39 10° W 13:49:51 13° NW 13:52:00 10° NNW daylight
16 Feb - 20:48:56 10° NNE 20:51:15 14° NE 20:53:35 10° E visible
16 Feb - 22:29:22 10° NW 22:33:21 41° WSW 22:37:27 10° S visible
